Regional Weather Roundup
Issued by NWS

Home | Current Version | Previous Version | Graphics & Text | Print | Product List | Glossary On
Versions: 1 2 3 4 5 6 7 8 9 10 11 12 13 14 15 16 17 18 19 20 21 22 23 24 25 26 27 28 29 30 31 32 33 34 35 36 37 38 39 40 41 42 43 44 45 46 47 48 49 50
000
ASUS45 KABQ 010010
RWRNM
NEW MEXICO REGIONAL WEATHER ROUNDUP
NATIONAL WEATHER SERVICE ALBUQUERQUE NM
600 PM MDT TUE JUN 30 2015

NOTE: "FAIR" MEANS FEW OR NO CLOUDS BELOW 12,000 FEET AGL WITH NO
       SIGNIFICANT WEATHER OR OBSTRUCTIONS TO VISION.

      THIS PRODUCT IS RELEASED AS TWO VERSIONS.  ONE VERSION NEAR
      THE TOP OF THE HOUR CONTAINING PRELIMINARY DATA FROM ALBUQUERQUE
      AND OTHER STATIONS.  A FINAL VERSION WITH ADDITIONAL DATA IS
      ISSUED ABOUT 10 MINUTES AFTER THE HOUR.

NMZ501-503-504-510>518-010100-
NORTHWEST PLATEAU/NORTHCENTRAL MOUNTAINS

CITY           SKY/WX    TMP DP  RH WIND       PRES   REMARKS
FARMINGTON     SUNNY     96  44  16 SW8       30.03F
6HR MIN TEMP:  89; 6HR MAX TEMP:  97;

LOS ALAMOS     SUNNY     86  36  17 N7        30.23F
SANTA FE       SUNNY     90  40  17 SE13      30.14F
6HR MIN TEMP:  81; 6HR MAX TEMP:  91;

TAOS           SUNNY     88  39  18 SW9       30.19F
ANGEL FIRE     FAIR      76  53  44 SE12      30.33F

$$
NMZ402-403-502-505>509-010100-
WESTCENTRAL MOUNTAINS/SOUTHWEST MOUNTAINS

CITY           SKY/WX    TMP DP  RH WIND       PRES   REMARKS
GALLUP         MOSUNNY   94  29  10 N12       30.13F
6HR MIN TEMP:  84; 6HR MAX TEMP:  97;

GRANTS         SUNNY     90  43  19 S9        30.16F
SILVER CITY      N/A     90  45  20 SE9G23    30.09F

$$
NMZ407-409-411-412-010100-
SOUTHERN DESERTS

CITY           SKY/WX    TMP DP  RH WIND       PRES   REMARKS
LORDSBURG      FAIR      91  46  21 SE9       29.97F
DEMING         PTSUNNY   95  45  17 E14       29.98F
6HR MIN TEMP:  88; 6HR MAX TEMP:  95;

LAS CRUCES     MOSUNNY   91  46  21 SE10G17   30.03F
HOLLOMAN AFB   MOSUNNY   94  47  19 W5        29.97F
ALAMOGORDO     MOSUNNY   91  46  21 S5        29.99F
T OR C         MOSUNNY   94  43  17 E10G18    30.02F
6HR MIN TEMP:  85; 6HR MAX TEMP:  96;


$$
NMZ519>523-010100-
CENTRAL VALLEYS/CENTRAL HIGHLANDS

CITY           SKY/WX    TMP DP  RH WIND       PRES   REMARKS
ALBUQUERQUE    MOSUNNY   93  46  19 VRB3      30.06F
6HR MIN TEMP:  83; 6HR MAX TEMP:  94;

DOUBLE EAGLE   MOSUNNY   91  46  21 E7        30.12F
MORIARTY ARPT    N/A     88  41  19 SE7       30.17F
6HR MIN TEMP:  81; 6HR MAX TEMP:  89;

CLINES CORNERS SUNNY     81  45  28 SE13G20   30.23F
6HR MIN TEMP:  78; 6HR MAX TEMP:  85;

BELEN          FAIR      93  38  14 SE5       30.06F
6HR MIN TEMP:  86; 6HR MAX TEMP:  94;

SOCORRO        PTSUNNY   93  40  15 S7        30.03F
6HR MIN TEMP:  86; 6HR MAX TEMP:  95;


$$
NMZ524>526-539-540-010100-
SOUTHCENTRAL MOUNTAINS

CITY           SKY/WX    TMP DP  RH WIND       PRES   REMARKS
RUIDOSO        SUNNY     75  41  29 SE12      30.27S

$$
NMZ527>531-010100-
NORTHEAST HIGHLANDS/NORTHEAST PLAINS

CITY           SKY/WX    TMP DP  RH WIND       PRES   REMARKS
LAS VEGAS      SUNNY     80  50  34 S10       30.23F
6HR MIN TEMP:  74; 6HR MAX TEMP:  82;

RATON          SUNNY     84  48  28 VRB5      30.16F
6HR MIN TEMP:  77; 6HR MAX TEMP:  85;

CLAYTON        SUNNY     90  46  21 S12       30.08F
6HR MIN TEMP:  86; 6HR MAX TEMP:  93;


$$
NMZ532>537-010100-
EASTCENTRAL PLAINS

CITY           SKY/WX    TMP DP  RH WIND       PRES   REMARKS
TUCUMCARI      SUNNY     92  45  19 S6        30.02F
6HR MIN TEMP:  87; 6HR MAX TEMP:  95;

CANNON AFB     SUNNY     86  50  28 SE9       30.07F
6HR MIN TEMP:  82; 6HR MAX TEMP:  89;

CLOVIS AIRPORT SUNNY     84  50  30 E9          N/A

$$
NMZ028-029-538-010100-
SOUTHEAST PLAINS

CITY           SKY/WX    TMP DP  RH WIND       PRES   REMARKS
ROSWELL        MOSUNNY   90  55  30 VRB5      30.01F
6HR MIN TEMP:  82; 6HR MAX TEMP:  91;

ARTESIA        MOSUNNY   90  55  31 SE10G18   30.02F
CARLSBAD       MOSUNNY   90  54  29 SE6       29.99F
6HR MIN TEMP:  84; 6HR MAX TEMP:  94;

HOBBS          MOSUNNY   86  55  35 SE10      30.05S


$$


USA.gov is the U.S. government's official web portal to all federal, state and local government web resources and services.